Terminal Aerodrome Forecast
Issued by NWS

Home | Current Version | Previous Version | Text Only | Print | Product List | Glossary On
Versions: 1 2 3 4 5 6 7 8 9 10 11 12 13 14 15 16 17 18 19 20 21 22 23 24 25 26 27 28 29 30
000
FTUS41 KOKX 232334
TAFSWF
TAF
KSWF 232334Z 2400/2506 26006KT P6SM SCT040 SCT070
     FM240700 28011G18KT P6SM FEW250
     FM241400 30015G23KT P6SM SCT035
     FM242300 32010KT P6SM FEW250
      AMD NOT SKED=

USA.gov is the U.S. government's official web portal to all federal, state and local government web resources and services.